Tracking 23099 objects as of 13-May-2021
HD Live streaming from Space Station
objects crossing your sky now

DELTA 2 R/B(1)

Track DELTA 2 R/B(1) now!
10-day predictions


NORAD ID: 22097
Int'l Code: 1992-057B
Perigee: 1,775.8 km
Apogee: 2,645.3 km
Inclination: 25.2 °
Period: 131.9 minutes
Semi major axis: 8581 km
RCS: 10.6891 m2 (large)
Launch date: August 31, 1992
Source: United States (US)
Launch site: AIR FORCE EASTERN TEST RANGE (AFETR)

Note: This is a ROCKET BODY
aabbcc
Your satellite tracking list
Your tracking list is empty




NASA's NSSDC Master Catalog

Two Line Element Set (TLE):
1 22097U 92057B   21133.44716339  .00000061  00000-0 -97636-4 0  9993
2 22097  25.1953 114.2870 0506623 341.6933 201.7883 10.92076971146294
Source of the keplerian elements: AFSPC